Content
SEND FEEDBACK

Daily
Averages
Monthly
Summary
United States of America

MANGILAO, GUAM


Home > North America > United States > Guam
Elevation: 60 feet     Latitude: 13 27N     Longitude: 144 49E

WEATHER
 
SELECT A DAY
Number of Records: 356,690;   Date Range: 1/1/95 - 12/20/14
 
SHARE

PRINT THIS DATA

[ ← Previous Day ]
WEATHER ALMANAC - AUGUST 7, 2014
[ Next Day → ]
[ °C ]   °F
Weather ElementAverageHighLow
Temperature81.9 °F85.3 °F (12:58 pm)77 °F (9:25 am)
Dewpoint76.5 °F77.5 °F (12:58 pm)74.8 °F (4:58 am)
Humidity83.8 %94 % (5:23 am)75 % (10:58 am)
Barometer29.78 in29.83 in (4:58 am)29.73 in (3:58 pm)
Wind Speed7.8 mph12.7 mph (1:28 am)
Weather ElementAverage
Visibility10 mi
Wind DirectionESE (122.3 °)

Weather ElementTotal
Precipitation---
Cooling Degree Days16.2 (Base 65)
Growing Degree Days31.2 (Base 50)
Averaged from 57 records on August 7, 2014
WEATHER CONDITIONS BREAKOUT
WIND DIRECTION BREAKOUT
WEATHER BY HOUR - AUGUST 7, 2014
[ °C ]   °F
Local TimeTemperatureDewpointHumidityBarometerVisibilityWind DirectionWind SpeedGust SpeedPrecipitationEventsConditions
12:38 AM78.8 °F77.0 °F94 %29.82 in10.0 miNNE (30°)6.9 mphMostly Cloudy
12:52 AM78.8 °F77.0 °F94 %29.81 in10.0 miNE (40°)5.8 mphRainLight Rain
12:58 AM79.5 °F76.6 °F91 %29.78 in10.0 miNNE (20°)6.9 mph0.00 inLight Drizzle
1:02 AM78.8 °F77.0 °F94 %29.81 in10.0 miNorth (10°)8.1 mphOvercast
1:27 AM78.8 °F77.0 °F94 %29.80 in10.0 miNNE (20°)6.9 mphMostly Cloudy
1:57 AM78.8 °F75.2 °F89 %29.79 in10.0 miNorth (360°)8.1 mphMostly Cloudy
1:58 AM79.3 °F76.6 °F91 %29.76 in10.0 miNorth (360°)8.1 mph0.00 inMostly Cloudy
2:03 AM78.8 °F75.2 °F89 %29.79 in10.0 miNorth (10°)6.9 mphScattered Clouds
2:58 AM78.6 °F75.6 °F90 %29.75 in10.0 miNorth (350°)4.6 mphClear
3:58 AM77.4 °F75.0 °F92 %29.74 in10.0 miNorth (10°)5.8 mphPartly Cloudy
4:58 AM77.0 °F74.8 °F93 %29.75 in10.0 miEast (90°)4.6 mphClear
5:58 AM77.2 °F75.4 °F94 %29.76 in10.0 miEast (80°)1.2 mphPartly Cloudy
6:58 AM77.7 °F75.6 °F93 %29.77 in10.0 miESE (110°)2.3 mphClear
7:58 AM81.0 °F77.0 °F88 %29.79 in10.0 miEast (100°)5.8 mphPartly Cloudy
8:23 AM80.6 °F77.0 °F89 %29.83 in10.0 miESE (110°)5.8 mphMostly Cloudy
8:53 AM82.4 °F77.0 °F84 %29.83 in10.0 miESE (110°)8.1 mphMostly Cloudy
8:58 AM82.9 °F76.8 °F82 %29.81 in10.0 miESE (110°)6.9 mphScattered Clouds
9:58 AM83.7 °F76.1 °F78 %29.81 in10.0 miVariable4.6 mphPartly Cloudy
10:43 AM84.2 °F77.0 °F79 %29.83 in10.0 miESE (110°)8.1 mphMostly Cloudy
10:48 AM84.2 °F77.0 °F79 %29.83 in10.0 miESE (110°)6.9 mphScattered Clouds
10:58 AM84.7 °F76.1 °F75 %29.79 in10.0 miESE (120°)8.1 mphScattered Clouds
11:13 AM84.2 °F77.0 °F79 %29.82 in10.0 miEast (90°)8.1 mphMostly Cloudy
11:18 AM84.2 °F77.0 °F79 %29.82 in10.0 miESE (110°)9.2 mphScattered Clouds
11:33 AM84.2 °F77.0 °F79 %29.81 in10.0 miEast (100°)10.4 mphMostly Cloudy
11:38 AM84.2 °F77.0 °F79 %29.81 in10.0 miESE (110°)8.1 mphScattered Clouds
11:58 AM84.7 °F76.8 °F77 %29.78 in10.0 miSE (140°)9.2 mphScattered Clouds
12:58 PM85.3 °F77.5 °F78 %29.75 in10.0 miESE (110°)10.4 mphMostly Cloudy
1:08 PM84.2 °F77.0 °F79 %29.78 in10.0 miESE (120°)10.4 mphMostly Cloudy
1:13 PM84.2 °F77.0 °F79 %29.78 in10.0 miESE (110°)9.2 mphMostly Cloudy
1:33 PM84.2 °F77.0 °F79 %29.78 in10.0 miESE (110°)6.9 mphMostly Cloudy
1:53 PM84.2 °F77.0 °F79 %29.78 in10.0 miSE (130°)10.4 mphMostly Cloudy
1:58 PM83.5 °F77.4 °F82 %29.75 in10.0 miSE (130°)9.2 mphMostly Cloudy
2:03 PM82.4 °F77.0 °F84 %29.78 in10.0 miESE (110°)9.2 mphMostly Cloudy
2:08 PM84.2 °F77.0 °F79 %29.78 in10.0 miSE (130°)11.5 mphMostly Cloudy
2:23 PM84.2 °F77.0 °F79 %29.78 in10.0 miSE (140°)9.2 mphMostly Cloudy
2:28 PM84.2 °F77.0 °F79 %29.77 in10.0 miESE (120°)10.4 mphMostly Cloudy
2:38 PM84.2 °F77.0 °F79 %29.77 in10.0 miSE (140°)10.4 mphMostly Cloudy
2:43 PM84.2 °F77.0 °F79 %29.77 in10.0 miESE (120°)10.4 mphScattered Clouds
2:58 PM85.3 °F76.6 °F75 %29.74 in10.0 miESE (120°)9.2 mphPartly Cloudy
3:58 PM83.8 °F75.9 °F77 %29.73 in10.0 miSE (140°)11.5 mphScattered Clouds
4:23 PM84.2 °F77.0 °F79 %29.76 in10.0 miSE (140°)10.4 mphMostly Cloudy
4:58 PM84.2 °F77.0 °F79 %29.73 in10.0 miSE (140°)6.9 mphScattered Clouds
5:03 PM84.2 °F77.0 °F79 %29.76 in10.0 miSE (140°)9.2 mphMostly Cloudy
5:28 PM84.2 °F77.0 °F79 %29.76 in10.0 miSSE (150°)9.2 mphScattered Clouds
5:58 PM82.9 °F75.9 °F79 %29.74 in10.0 miSSE (150°)12.7 mphPartly Cloudy
6:58 PM81.3 °F75.7 °F83 %29.75 in10.0 miSSE (150°)8.1 mphPartly Cloudy
7:13 PM80.6 °F75.2 °F84 %29.79 in10.0 miSSE (150°)6.9 mphMostly Cloudy
7:33 PM80.6 °F75.2 °F84 %29.79 in10.0 miSSE (160°)6.9 mphScattered Clouds
7:48 PM80.6 °F77.0 °F89 %29.80 in10.0 miSSE (160°)8.1 mphMostly Cloudy
7:53 PM80.6 °F77.0 °F89 %29.80 in10.0 miSSE (150°)6.9 mphScattered Clouds
7:58 PM81.0 °F76.1 °F85 %29.77 in10.0 miSSE (150°)9.2 mphScattered Clouds
8:58 PM80.4 °F75.7 °F86 %29.78 in10.0 miSSE (160°)4.6 mphPartly Cloudy
9:23 PM80.6 °F75.2 °F84 %29.82 in10.0 miSouth (170°)5.8 mphMostly Cloudy
9:38 PM80.6 °F75.2 °F84 %29.82 in10.0 miVariable5.8 mphMostly Cloudy
9:58 PM80.6 °F75.9 °F86 %29.79 in10.0 miSSE (150°)6.9 mphPartly Cloudy
10:58 PM80.2 °F76.3 °F88 %29.81 in10.0 miSSE (150°)6.9 mphPartly Cloudy
11:58 PM79.5 °F75.7 °F88 %29.79 in10.0 miSSE (160°)3.5 mphClear
Hourly data recorded from PGUA, located miles away from Mangilao, Guam







STORIES FROM OUR PARTNERS